Regional Weather Roundup
Issued by NWS

Home | Current Version | Previous Version | Graphics & Text | Print | Product List | Glossary On
Versions: 1 2 3 4 5 6 7 8 9 10 11 12 13 14 15 16 17 18 19 20 21 22 23 24 25 26 27 28 29 30 31 32 33 34 35 36 37 38 39 40 41 42 43 44 45 46 47 48 49 50
000
ASUS43 KLOT 041708
RWRIL

ILLINOIS REGIONAL WEATHER ROUNDUP
NATIONAL WEATHER SERVICE CHICAGO/ROMEOVILLE IL
1200 PM CDT TUE AUG 04 2015

NOTE: "FAIR" INDICATES FEW OR NO CLOUDS BELOW 12,000 FEET WITH NO
SIGNIFICANT WEATHER AND/OR OBSTRUCTIONS TO VISIBILITY.

* THESE STATIONS ARE NOT UNDER NWS QUALITY CONTROL. THEY ALSO MAY NOT
  REPORT WEATHER SUCH AS PRECIPITATION OR FOG.

ILZ001-002-007-009-015-016-024-041800-
NORTHWEST ILLINOIS

CITY           SKY/WX    TMP DP  RH WIND       PRES   REMARKS
MOLINE         PTSUNNY   81  57  43 W10       30.01R HX  81
STERLING*      PTSUNNY   79  59  50 NW10      29.98S HX  80
SAVANNA*       CLOUDY    79  55  43 NW9       30.01S
$$

ILZ003-004-008-010-011-017-018-041800-
NORTH CENTRAL ILLINOIS

CITY           SKY/WX    TMP DP  RH WIND       PRES   REMARKS
ROCKFORD       PTSUNNY   79  55  43 NW13      30.00F
FREEPORT*      PTSUNNY   75  56  50 W10G16    30.01F
ROCHELLE*      PTSUNNY   77  55  46 W14       30.00F
DE KALB*       MOSUNNY   77  57  49 W13       30.00S
PERU*          PTSUNNY   78  55  45 W8        30.01S
$$

ILZ005-006-012>014-019>023-041800-
NORTHEAST ILLINOIS

CITY           SKY/WX    TMP DP  RH WIND       PRES   REMARKS
CHICAGO-OHARE  PTSUNNY   79  50  36 W12       29.97S
CHICAGO-MIDWAY PTSUNNY   81  50  33 W14       29.97S HX  80
AURORA         MOSUNNY   77  55  46 NW10      29.99S
LANSING*       SUNNY     79  51  36 NW8       29.98S
JOLIET*        MOSUNNY   81  53  38 W9G17     29.99S HX  80
WAUKEGAN       MOSUNNY   78  54  43 SW8       29.96F
DUPAGE AIRPORT MOSUNNY   79  54  41 W10       29.98S
KANKAKEE*      MOSUNNY   79  58  48 W7        30.01S HX  80
WHEELING       SUNNY     79  50  36 NW12      29.98S
MORRIS*        MOSUNNY   77  56  47 W10G16    29.98F
ROMEOVILLE*    MOSUNNY   78  52  40 W10       29.99S
NORTHERLY ISL    N/A     79  48  33 W9          N/A
$$

LMZ740>746-041800-
SOUTHERN LAKE MICHIGAN

STATION/POSITION SKY/WX   TEMP    WIND        PRES    VSBY  WAVE
                          AIR SEA DIR/SP/G                  HT/PER
                          (F)     (DEG/KT/KT) (MB)    (MI)  (FT/S)
HARRISON CRIB              75     270/ 11/ 13   N/A
BURNHAM HARBOR             78     320/  8/ 14   N/A
CALUMET HARBOR             77     230/  6/ 11   N/A
BURNS HARBOR               73     330/  4/  5 1015.6F
MICHIGAN CITY              71     240/  8/  8   N/A
MICHIGAN CITY 6N           73 74  290/  4/  6   N/A           1/ 3
ST. JOSEPH                 71 74  300/  8/  8   N/A           1/ 3
$$

ILZ025>027-034>036-040-047-049-050-058-095>099-041800-
WEST-CENTRAL ILLINOIS

CITY           SKY/WX    TMP DP  RH WIND       PRES   REMARKS
QUINCY         CLOUDY    76  60  57 W5        30.04R
GALESBURG*       N/A     78  60  53 W7        30.03R
MACOMB*        CLOUDY    76  61  59 CALM      30.06R
JACKSONVILLE*  CLOUDY    79  63  56 CALM      30.02S HX  81
PITTSFIELD*    CLOUDY    79  63  57 E3        30.03S HX  81
$$

ILZ028>032-037-038-041>044-048-051>054-059>061-041800-
CENTRAL ILLINOIS

CITY           SKY/WX    TMP DP  RH WIND       PRES   REMARKS
PONTIAC        PTSUNNY   78  61  54 W7        30.01F HX  80
BLOOMINGTON    PTSUNNY   80  56  43 VRB6      30.03S HX  80
DECATUR        CLOUDY    78  58  49 CALM      30.02S
PEORIA         MOSUNNY   82  59  45 SW6       30.02R HX  82
LACON*         PTSUNNY   78  60  53 W7        30.00S
LINCOLN*       CLOUDY    80  59  49 S5        30.02R HX  80
SPRINGFIELD    CLOUDY    79  59  50 CALM      30.03R HX  80
TAYLORVILLE    CLOUDY    77  61  57 CALM      30.02S
$$

ILZ033-039-045-046-055>057-062-063-041800-
EAST-CENTRAL ILLINOIS

CITY           SKY/WX    TMP DP  RH WIND       PRES   REMARKS
CHAMPAIGN      CLOUDY    79  56  45 W7        30.02F HX  80
DANVILLE*      PTSUNNY   77  61  57 W7        29.99S
RANTOUL*       PTSUNNY   81  56  42 NW5       30.01F HX  81
MATTOON        CLOUDY    80  57  45 VRB3      30.01S HX  80
PARIS*         PTSUNNY   78  60  54 W3        30.02S
$$

ILZ079-100>102-041800-
SOUTHWEST ILLINOIS

CITY           SKY/WX    TMP DP  RH WIND       PRES   REMARKS
ALTON          PTSUNNY   82  68  61 VRB5      30.01R HX  85
BELLEVILLE     MOSUNNY   85  72  65 VRB3      29.97F HX  91
CAHOKIA*       MOSUNNY   87  68  52 VRB3      29.98S HX  90
SPARTA*        SUNNY     86  74  67 S6        29.99S HX  93
$$

ILZ064>066-069>071-074>076-080>082-084>086-088>090-092>094-041800-
SOUTH-CENTRAL ILLINOIS

CITY           SKY/WX    TMP DP  RH WIND       PRES   REMARKS
CARBONDALE     MOSUNNY   88  74  63 W8        29.98F HX  96
CAIRO*         MOSUNNY   89  76  63 W7        29.98F HX 100
EFFINGHAM*     PTSUNNY   79  61  53 E3        30.03S HX  80
MARION         MOSUNNY   88  75  66 SW5       29.99F HX  97
MT. VERNON     MOSUNNY   86  68  54 E5        29.99F HX  89
CENTRALIA*     MOSUNNY   84  66  55 S5        29.99F HX  86
SALEM*         MOSUNNY   83  65  54 SE5       30.00F HX  85
METROPOLIS*    SUNNY     90  77  64 W7        29.99S HX 103
$$

ILZ067-068-072-073-078-083-087-091-041800-
SOUTHEAST ILLINOIS

CITY           SKY/WX    TMP DP  RH WIND       PRES   REMARKS
LAWRENCEVILLE  PTSUNNY   80  67  64 S5        30.01S HX  82
FLORA*         PTSUNNY   82  67  59 SE5       30.00F HX  85
FAIRFIELD*     PTSUNNY   83  69  63 E5        29.98F HX  86
HARRISBURG*    MOSUNNY   87  73  62 CALM      30.00S HX  94
ROBINSON*      CLOUDY    77  62  60 CALM      30.02R
CARMI*         MOSUNNY   84  66  54 SE3       29.98F HX  87
$$

ABBREVIATIONS USED IN REMARKS
   TC - TEMPERATURE IN CELSIUS
  WCI - WIND CHILL INDEX
   HX - HEAT INDEX
  VSB - VISIBILITY
$$



USA.gov is the U.S. government's official web portal to all federal, state and local government web resources and services.